Weather History for Concord, NH

Change the Weather History Date:

Thursday, June 27, 2013

  Actual Average Record
Temperature  
Mean Temperature 66 °F 68 °F  
Max Temperature 72 °F 80 °F 97 °F (1966)
Min Temperature 60 °F 56 °F 34 °F (1897)
Degree Days  
Heating Degree Days 0 1  
Month to date heating degree days 72 81  
Since 1 June heating degree days 72 81  
Since 1 July heating degree days 6845 7231  
Cooling Degree Days 1 4  
Month to date cooling degree days 88 70  
Year to date cooling degree days 109 88  
Since 1 June cooling degree days 88 70  
Growing Degree Days 16 (Base 50)    
Moisture  
Dew Point 62 °F    
Average Humidity 92    
Maximum Humidity 100    
Minimum Humidity 84    
Precipitation  
Precipitation 0.06 in 0.11 in 1.54 in (1932)
Month to date precipitation 6.02 3.37  
Year to date precipitation 18.78 19.03  
Snow  
Snow 0.00 in 0.00 in 0.00 in (2002)
Month to date snowfall 0.0 0.0  
Since 1 June snowfall 0.0 0.0  
Since 1 July snowfall 83.4 61.4  
Snow Depth 0.00 in    
Sea Level Pressure  
Sea Level Pressure 29.84 in    
Wind  
Wind Speed 5 mph (SE)    
Max Wind Speed 9 mph    
Max Gust Speed 14 mph    
Visibility 6 miles    
Events Rain    
T = Trace of Precipitation, MM = Missing Value Source: NWS Daily Summary

Daily Weather History Graph

Daily Weather History Graph

Search for Another Location

Airport:

Trip Planner

Search our weather history database for the weather conditions in past years. The results will help you decide how hot, cold, wet, or windy it might be!

Date:

Astronomy

Jun. 27, 2013 Rise Set
Actual Time 5:08 AM EDT 8:30 PM EDT
Civil Twilight 4:32 AM EDT 9:05 PM EDT
Nautical Twilight 3:46 AM EDT 9:51 PM EDT
Astronomical Twilight 2:48 AM EDT 10:48 PM EDT
Moon 11:15 PM EDT (6/27) 10:14 AM EDT (6/27)
Length of Visible Light 16h 32m
Length of Day
15h 21m
Waning Gibbous, 76% of the Moon is Illuminated
Jun 27
Waning Gibbous
Jun 30
Last Quarter
Jul 8
New
Jul 15
First Quarter
Jul 22
Full

Hourly Weather History & Observations

Time (EDT) Temp. Dew Point Humidity Pressure Visibility Wind Dir Wind Speed Gust Speed Precip Events Conditions
12:05 AM 62.6 °F 62.6 °F 100% 29.86 in 2.5 mi Calm Calm - N/A   Overcast
12:37 AM 62.6 °F 62.6 °F 100% 29.85 in 1.5 mi ESE 3.5 mph - N/A   Overcast
12:51 AM 62.1 °F 62.1 °F 100% 29.85 in 1.2 mi SE 4.6 mph - N/A   Overcast
1:00 AM 62.6 °F 62.6 °F 100% 29.85 in 1.5 mi Calm Calm - N/A   Overcast
1:19 AM 62.6 °F 62.6 °F 100% 29.86 in 2.0 mi Calm Calm - N/A   Overcast
1:40 AM 62.6 °F 62.6 °F 100% 29.85 in 3.0 mi East 3.5 mph - N/A   Overcast
1:51 AM 62.1 °F 62.1 °F 100% 29.85 in 5.0 mi Calm Calm - N/A   Overcast
2:51 AM 62.1 °F 62.1 °F 100% 29.84 in 7.0 mi East 3.5 mph - N/A   Overcast
3:51 AM 62.1 °F 61.0 °F 96% 29.83 in 10.0 mi ESE 5.8 mph - N/A   Overcast
4:51 AM 61.0 °F 61.0 °F 100% 29.84 in 2.5 mi East 3.5 mph - N/A   Overcast
5:11 AM 60.8 °F 60.8 °F 100% 29.85 in 1.2 mi East 3.5 mph - N/A   Overcast
5:32 AM 60.8 °F 60.8 °F 100% 29.85 in 1.2 mi SE 3.5 mph - N/A   Overcast
5:44 AM 60.8 °F 60.8 °F 100% 29.85 in 1.8 mi SSE 4.6 mph - N/A   Overcast
5:51 AM 60.1 °F 60.1 °F 100% 29.86 in 1.8 mi SSE 3.5 mph - N/A   Overcast
5:59 AM 60.8 °F 60.8 °F 100% 29.86 in 2.5 mi Calm Calm - N/A   Overcast
6:48 AM 60.8 °F 60.8 °F 100% 29.86 in 4.0 mi ESE 3.5 mph - N/A   Overcast
6:51 AM 60.1 °F 60.1 °F 100% 29.86 in 5.0 mi Calm Calm - N/A   Overcast
7:51 AM 60.1 °F 60.1 °F 100% 29.87 in 2.0 mi SE 4.6 mph - N/A   Overcast
7:54 AM 60.8 °F 60.8 °F 100% 29.87 in 1.2 mi ESE 3.5 mph - N/A   Overcast
8:15 AM 60.8 °F 60.8 °F 100% 29.86 in 1.5 mi SE 4.6 mph - N/A   Overcast
8:27 AM 60.8 °F 60.8 °F 100% 29.87 in 3.0 mi SSE 4.6 mph - N/A   Overcast
8:51 AM 61.0 °F 60.1 °F 97% 29.87 in 4.0 mi SSE 5.8 mph - N/A   Overcast
9:05 AM 60.8 °F 60.8 °F 100% 29.87 in 2.0 mi SE 3.5 mph - N/A   Overcast
9:30 AM 62.6 °F 60.8 °F 94% 29.86 in 3.0 mi SSE 4.6 mph - N/A   Overcast
9:51 AM 62.1 °F 61.0 °F 96% 29.86 in 5.0 mi Calm Calm - N/A   Overcast
10:51 AM 64.0 °F 62.1 °F 93% 29.86 in 9.0 mi SSE 4.6 mph - N/A   Overcast
11:51 AM 66.0 °F 63.0 °F 90% 29.86 in 7.0 mi Calm Calm - N/A   Overcast
12:19 PM 69.8 °F 62.6 °F 78% 29.85 in 10.0 mi Calm Calm - N/A   Overcast
12:51 PM 69.1 °F 64.0 °F 84% 29.84 in 10.0 mi SE 4.6 mph - N/A   Overcast
1:51 PM 70.0 °F 64.9 °F 84% 29.83 in 10.0 mi SE 5.8 mph - N/A   Overcast
2:51 PM 71.1 °F 66.0 °F 84% 29.82 in 10.0 mi ESE 4.6 mph - N/A   Overcast
3:03 PM 71.6 °F 66.2 °F 83% 29.82 in 10.0 mi Calm Calm - N/A   Overcast
3:30 PM 71.6 °F 66.2 °F 83% 29.81 in 10.0 mi SE 5.8 mph - N/A   Overcast
3:51 PM 71.1 °F 66.0 °F 84% 29.81 in 10.0 mi ESE 4.6 mph - N/A   Overcast
4:51 PM 71.1 °F 66.0 °F 84% 29.79 in 10.0 mi SE 4.6 mph - N/A   Overcast
5:02 PM 71.6 °F 66.2 °F 83% 29.79 in 10.0 mi ESE 6.9 mph - N/A   Overcast
5:51 PM 69.1 °F 66.0 °F 90% 29.79 in 9.0 mi SE 6.9 mph - N/A   Overcast
6:51 PM 68.0 °F 64.9 °F 90% 29.80 in 9.0 mi Variable 5.8 mph - N/A   Overcast
7:51 PM 66.0 °F 64.0 °F 93% 29.80 in 10.0 mi SSE 5.8 mph - N/A   Overcast
8:51 PM 64.9 °F 63.0 °F 93% 29.81 in 10.0 mi ESE 6.9 mph - N/A   Overcast
9:42 PM 64.4 °F 60.8 °F 88% 29.81 in 10.0 mi SE 4.6 mph - N/A   Overcast
9:51 PM 64.0 °F 61.0 °F 90% 29.81 in 10.0 mi ESE 4.6 mph - N/A   Overcast
10:03 PM 64.4 °F 62.6 °F 94% 29.81 in 10.0 mi SE 3.5 mph - N/A   Overcast
10:51 PM 62.1 °F 60.1 °F 93% 29.80 in 10.0 mi East 8.1 mph - 0.00 in   Overcast
11:51 PM 62.1 °F 60.1 °F 93% 29.78 in 4.0 mi ESE 4.6 mph - 0.03 in Rain Light Rain